JST513 YSSY-YMML

Flight info

Callsign JST513
Flight time 1h 24m
Altitude 36000
Route MARUB7/34R WOL H65 LEECE Q29 ML
Aircraft A320/M-SDE3FGHIRWY/LB1

Departure

Time 2026-05-04 09:04
Airport Sydney Kingsford Smith International Airport (YSSY)

Arrival

Time 2026-05-04 10:29
Airport Melbourne Airport (YMML)
Time Latitude Longitude Altitude Speed Heading
2026-05-04 08:33 -33.93515 151.17697 29 ft 0 kts 101°
2026-05-04 08:37 -33.93515 151.17696 29 ft 0 kts 101°
2026-05-04 08:43 -33.93514 151.17696 30 ft 0 kts 101°
2026-05-04 08:50 -33.93484 151.17586 26 ft 4 kts 166°
2026-05-04 08:50 -33.93478 151.17584 29 ft 3 kts 167°
2026-05-04 08:54 -33.93525 151.17597 30 ft 0 kts 165°
2026-05-04 08:55 -33.93546 151.17603 30 ft 9 kts 169°
2026-05-04 08:55 -33.93621 151.17622 30 ft 12 kts 163°
2026-05-04 08:55 -33.93701 151.17673 30 ft 14 kts 154°
2026-05-04 08:55 -33.93804 151.17701 30 ft 16 kts 167°
2026-05-04 08:57 -33.94553 151.17889 30 ft 14 kts 166°
2026-05-04 09:01 -33.95831 151.18850 30 ft 27 kts 166°
2026-05-04 09:01 -33.96026 151.18903 30 ft 30 kts 168°
2026-05-04 09:01 -33.96236 151.18957 30 ft 32 kts 168°
2026-05-04 09:01 -33.96451 151.19013 30 ft 32 kts 168°
2026-05-04 09:02 -33.96672 151.19070 30 ft 30 kts 171°
2026-05-04 09:02 -33.96878 151.19080 30 ft 25 kts 169°
2026-05-04 09:02 -33.97043 151.19122 30 ft 21 kts 168°
2026-05-04 09:02 -33.97122 151.19221 30 ft 20 kts 79°
2026-05-04 09:03 -33.97057 151.19362 28 ft 19 kts 17°
2026-05-04 09:03 -33.96971 151.19350 24 ft 13 kts 348°
2026-05-04 09:03 -33.96685 151.19278 23 ft 77 kts 347°
2026-05-04 09:03 -33.95965 151.19088 28 ft 131 kts 347°
2026-05-04 09:04 -33.94962 151.18842 355 ft 150 kts 352°
2026-05-04 09:04 -33.93945 151.18605 1054 ft 149 kts 351°
2026-05-04 09:04 -33.92944 151.18358 1782 ft 145 kts 349°
2026-05-04 09:04 -33.91910 151.18092 2220 ft 160 kts 349°
2026-05-04 09:05 -33.90768 151.17796 2651 ft 174 kts 347°
2026-05-04 09:05 -33.89513 151.17463 2983 ft 197 kts 347°
2026-05-04 09:05 -33.88082 151.17084 3422 ft 222 kts 347°
2026-05-04 09:05 -33.86503 151.16671 4034 ft 239 kts 346°
2026-05-04 09:06 -33.84862 151.16243 4963 ft 243 kts 347°
2026-05-04 09:07 -33.72466 151.13697 10490 ft 303 kts 12°
2026-05-04 09:08 -33.70562 151.14963 11002 ft 326 kts 37°
2026-05-04 09:08 -33.69162 151.17166 11694 ft 343 kts 59°
2026-05-04 09:08 -33.68521 151.19938 12398 ft 358 kts 81°
2026-05-04 09:08 -33.68759 151.22951 13112 ft 371 kts 103°
2026-05-04 09:09 -33.69883 151.25811 13813 ft 379 kts 121°
2026-05-04 09:09 -33.71332 151.28438 14424 ft 384 kts 122°
2026-05-04 09:09 -33.72941 151.31058 15061 ft 388 kts 133°
2026-05-04 09:09 -33.75030 151.33059 15657 ft 391 kts 152°
2026-05-04 09:10 -33.77560 151.34193 16259 ft 390 kts 172°
2026-05-04 09:10 -33.80249 151.34307 16861 ft 386 kts 192°
2026-05-04 09:10 -33.82796 151.33409 17473 ft 379 kts 211°
2026-05-04 09:10 -33.85059 151.31811 18101 ft 378 kts 217°
2026-05-04 09:11 -33.87311 151.30136 18688 ft 381 kts 217°
2026-05-04 09:11 -33.89576 151.28458 19275 ft 384 kts 217°
2026-05-04 09:11 -33.91865 151.26766 19843 ft 387 kts 217°
2026-05-04 09:11 -33.94163 151.25071 20439 ft 389 kts 218°
2026-05-04 09:12 -33.96481 151.23361 21007 ft 392 kts 218°
2026-05-04 09:12 -33.98808 151.21641 21549 ft 394 kts 218°
2026-05-04 09:14 -34.15501 151.09251 24940 ft 412 kts 219°
2026-05-04 09:14 -34.17946 151.07427 25356 ft 414 kts 219°
2026-05-04 09:14 -34.20404 151.05594 25768 ft 417 kts 219°
2026-05-04 09:14 -34.22883 151.03743 26182 ft 420 kts 219°
2026-05-04 09:15 -34.25376 151.01879 26582 ft 423 kts 219°
2026-05-04 09:15 -34.27885 151.00001 26986 ft 426 kts 219°
2026-05-04 09:15 -34.30418 150.98113 27377 ft 429 kts 219°
2026-05-04 09:15 -34.32964 150.96214 27765 ft 431 kts 219°
2026-05-04 09:17 -34.53891 150.80442 30742 ft 448 kts 225°
2026-05-04 09:18 -34.56221 150.77983 31106 ft 439 kts 234°
2026-05-04 09:18 -34.58171 150.75174 31465 ft 431 kts 242°
2026-05-04 09:18 -34.59932 150.72251 32017 ft 427 kts 242°
2026-05-04 09:18 -34.61685 150.69349 32603 ft 424 kts 242°
2026-05-04 09:19 -34.63417 150.66478 33197 ft 420 kts 242°
2026-05-04 09:19 -34.65136 150.63630 33787 ft 416 kts 242°
2026-05-04 09:19 -34.66840 150.60798 34316 ft 413 kts 243°
2026-05-04 09:19 -34.68531 150.57988 34784 ft 410 kts 243°
2026-05-04 09:20 -34.70212 150.55193 35202 ft 409 kts 243°
2026-05-04 09:20 -34.71892 150.52394 35587 ft 408 kts 243°
2026-05-04 09:20 -34.73557 150.49614 35930 ft 408 kts 243°
2026-05-04 09:20 -34.75218 150.46841 36020 ft 406 kts 243°
2026-05-04 09:21 -34.78538 150.41296 36034 ft 404 kts 243°
2026-05-04 09:21 -34.81843 150.35752 36036 ft 404 kts 243°
2026-05-04 09:22 -34.85125 150.30256 36031 ft 404 kts 243°
2026-05-04 09:22 -34.88423 150.24718 36030 ft 404 kts 243°
2026-05-04 09:23 -34.91719 150.19171 36051 ft 405 kts 243°
2026-05-04 09:23 -34.95024 150.13612 36064 ft 405 kts 243°
2026-05-04 09:25 -35.08224 149.91282 36078 ft 406 kts 243°
2026-05-04 09:26 -35.11526 149.85681 36084 ft 406 kts 243°
2026-05-04 09:26 -35.14827 149.80080 36082 ft 406 kts 243°
2026-05-04 09:27 -35.18124 149.74466 36082 ft 406 kts 243°
2026-05-04 09:27 -35.21401 149.68869 36070 ft 406 kts 243°
2026-05-04 09:28 -35.24692 149.63251 36072 ft 407 kts 243°
2026-05-04 09:28 -35.27987 149.57619 36083 ft 406 kts 243°
2026-05-04 09:29 -35.31269 149.51985 36093 ft 407 kts 243°
2026-05-04 09:29 -35.34556 149.46337 36100 ft 407 kts 243°
2026-05-04 09:30 -35.37846 149.40687 36104 ft 407 kts 243°
2026-05-04 09:30 -35.41135 149.35039 36111 ft 407 kts 244°
2026-05-04 09:31 -35.44270 149.29631 36110 ft 407 kts 244°
2026-05-04 09:31 -35.47511 149.24017 36104 ft 406 kts 244°
2026-05-04 09:32 -35.50789 149.18349 36104 ft 407 kts 244°
2026-05-04 09:34 -35.63861 148.95645 36100 ft 407 kts 244°
2026-05-04 09:34 -35.67122 148.89955 36106 ft 407 kts 244°
2026-05-04 09:35 -35.70384 148.84260 36108 ft 407 kts 244°
2026-05-04 09:35 -35.73638 148.78567 36107 ft 407 kts 244°
2026-05-04 09:37 -35.86603 148.55755 36102 ft 407 kts 244°
2026-05-04 09:38 -35.89857 148.50026 36103 ft 408 kts 244°
2026-05-04 09:38 -35.93103 148.44283 36105 ft 408 kts 244°
2026-05-04 09:39 -35.96333 148.38530 36106 ft 409 kts 244°
2026-05-04 09:39 -35.99574 148.32752 36103 ft 408 kts 244°
2026-05-04 09:40 -36.02806 148.26975 36100 ft 408 kts 244°
2026-05-04 09:40 -36.06038 148.21196 36100 ft 409 kts 244°
2026-05-04 09:42 -36.18973 147.98056 36087 ft 411 kts 244°
2026-05-04 09:43 -36.22218 147.92238 36086 ft 411 kts 244°
2026-05-04 09:43 -36.25469 147.86402 36083 ft 412 kts 244°
2026-05-04 09:44 -36.28172 147.81542 36096 ft 412 kts 244°
2026-05-04 09:46 -36.41112 147.58111 36089 ft 413 kts 243°
2026-05-04 09:46 -36.44348 147.52230 36084 ft 412 kts 243°
2026-05-04 09:47 -36.47511 147.46474 36079 ft 412 kts 243°
2026-05-04 09:49 -36.60388 147.22912 36082 ft 411 kts 243°
2026-05-04 09:51 -36.71590 147.02267 35963 ft 409 kts 244°
2026-05-04 09:51 -36.73160 146.99355 34888 ft 412 kts 244°
2026-05-04 09:51 -36.74751 146.96408 34346 ft 402 kts 245°
2026-05-04 09:51 -36.76283 146.93609 34255 ft 382 kts 245°
2026-05-04 09:52 -36.77761 146.90901 33729 ft 374 kts 245°
2026-05-04 09:52 -36.79209 146.88227 33309 ft 371 kts 246°
2026-05-04 09:52 -36.80642 146.85565 32943 ft 367 kts 246°
2026-05-04 09:52 -36.82045 146.82955 32859 ft 356 kts 246°
2026-05-04 09:53 -36.83410 146.80402 32772 ft 354 kts 247°
2026-05-04 09:53 -36.86148 146.75255 32622 ft 356 kts 247°
2026-05-04 09:54 -36.88903 146.70112 32470 ft 356 kts 247°
2026-05-04 09:54 -36.91662 146.64966 32315 ft 355 kts 247°
2026-05-04 09:55 -36.94411 146.59835 32162 ft 354 kts 247°
2026-05-04 09:55 -36.97147 146.54707 31817 ft 355 kts 247°
2026-05-04 09:55 -36.98498 146.52174 31442 ft 354 kts 248°
2026-05-04 09:56 -36.99863 146.49615 31051 ft 353 kts 248°
2026-05-04 09:56 -37.01229 146.47054 30683 ft 353 kts 248°
2026-05-04 09:56 -37.02589 146.44503 30313 ft 352 kts 248°
2026-05-04 09:56 -37.03945 146.41953 29913 ft 351 kts 248°
2026-05-04 09:57 -37.05295 146.39417 29636 ft 346 kts 248°
2026-05-04 09:57 -37.06616 146.36950 29434 ft 336 kts 248°
2026-05-04 09:57 -37.07899 146.34550 29286 ft 328 kts 249°
2026-05-04 09:57 -37.09152 146.32195 29026 ft 323 kts 249°
2026-05-04 09:58 -37.10386 146.29863 28695 ft 320 kts 249°
2026-05-04 09:58 -37.11610 146.27544 28336 ft 318 kts 248°
2026-05-04 09:58 -37.12826 146.25242 27975 ft 315 kts 248°
2026-05-04 10:00 -37.23882 146.13946 24255 ft 347 kts 167°
2026-05-04 10:00 -37.26165 146.14947 23768 ft 346 kts 162°
2026-05-04 10:02 -37.41477 146.22374 21589 ft 331 kts 162°
2026-05-04 10:04 -37.56306 146.29501 19784 ft 322 kts 162°
2026-05-04 10:04 -37.58398 146.30501 19537 ft 320 kts 162°
2026-05-04 10:04 -37.60477 146.31489 19291 ft 319 kts 162°
2026-05-04 10:04 -37.62549 146.32472 19044 ft 318 kts 162°
2026-05-04 10:05 -37.64615 146.33445 18805 ft 316 kts 163°
2026-05-04 10:05 -37.66737 146.34005 18553 ft 308 kts 184°
2026-05-04 10:05 -37.68807 146.33629 18318 ft 297 kts 205°
2026-05-04 10:05 -37.70587 146.32424 18052 ft 286 kts 225°
2026-05-04 10:06 -37.71896 146.30610 17782 ft 278 kts 244°
2026-05-04 10:06 -37.72674 146.28293 17516 ft 294 kts 262°
2026-05-04 10:06 -37.72791 146.25714 17245 ft 294 kts 280°
2026-05-04 10:08 -37.67246 146.12290 15690 ft 285 kts 300°
2026-05-04 10:08 -37.66261 146.10118 15439 ft 284 kts 300°
2026-05-04 10:08 -37.65283 146.07964 15191 ft 283 kts 300°
2026-05-04 10:08 -37.64303 146.05811 14941 ft 281 kts 300°
2026-05-04 10:09 -37.63332 146.03684 14688 ft 280 kts 300°
2026-05-04 10:09 -37.62365 146.01563 14459 ft 278 kts 300°
2026-05-04 10:09 -37.61398 145.99440 14220 ft 277 kts 300°
2026-05-04 10:09 -37.60451 145.97361 13979 ft 276 kts 300°
2026-05-04 10:10 -37.59496 145.95266 13736 ft 275 kts 300°
2026-05-04 10:10 -37.58542 145.93175 13474 ft 274 kts 300°
2026-05-04 10:10 -37.57594 145.91100 13200 ft 272 kts 300°
2026-05-04 10:10 -37.56651 145.89039 12924 ft 271 kts 300°
2026-05-04 10:11 -37.55712 145.86989 12670 ft 269 kts 300°
2026-05-04 10:11 -37.54781 145.84955 12401 ft 268 kts 300°
2026-05-04 10:11 -37.53852 145.82926 12150 ft 266 kts 300°
2026-05-04 10:11 -37.52929 145.80910 11889 ft 265 kts 300°
2026-05-04 10:12 -37.52011 145.78907 11641 ft 264 kts 301°
2026-05-04 10:12 -37.51093 145.76906 11381 ft 263 kts 301°
2026-05-04 10:12 -37.50179 145.74919 11125 ft 262 kts 301°
2026-05-04 10:12 -37.49272 145.72945 10879 ft 260 kts 301°
2026-05-04 10:13 -37.48366 145.70976 10632 ft 260 kts 301°
2026-05-04 10:13 -37.47464 145.69012 10387 ft 259 kts 301°
2026-05-04 10:13 -37.46639 145.67006 10143 ft 259 kts 292°
2026-05-04 10:13 -37.46263 145.64793 9914 ft 261 kts 276°
2026-05-04 10:14 -37.46424 145.62494 9780 ft 268 kts 261°
2026-05-04 10:14 -37.47130 145.60305 9646 ft 275 kts 244°
2026-05-04 10:16 -37.54655 145.47351 9035 ft 240 kts 241°
2026-05-04 10:16 -37.55626 145.45670 9036 ft 241 kts 241°
2026-05-04 10:16 -37.56611 145.43963 8916 ft 240 kts 241°
2026-05-04 10:16 -37.57592 145.42264 8781 ft 239 kts 240°
2026-05-04 10:17 -37.58571 145.40572 8648 ft 239 kts 240°
2026-05-04 10:17 -37.59550 145.38880 8521 ft 238 kts 240°
2026-05-04 10:19 -37.66284 145.27194 7623 ft 234 kts 240°
2026-05-04 10:19 -37.67240 145.25540 7493 ft 233 kts 240°
2026-05-04 10:19 -37.68195 145.23889 7375 ft 233 kts 240°
2026-05-04 10:19 -37.69146 145.22239 7245 ft 231 kts 240°
2026-05-04 10:20 -37.70090 145.20595 7122 ft 230 kts 240°
2026-05-04 10:20 -37.71026 145.18963 7012 ft 230 kts 240°
2026-05-04 10:20 -37.71967 145.17327 6868 ft 229 kts 240°
2026-05-04 10:20 -37.72892 145.15717 6758 ft 227 kts 240°
2026-05-04 10:21 -37.73823 145.14093 6630 ft 228 kts 240°
2026-05-04 10:21 -37.74750 145.12477 6512 ft 227 kts 240°
2026-05-04 10:21 -37.75674 145.10864 6395 ft 226 kts 240°
2026-05-04 10:21 -37.76596 145.09257 6267 ft 225 kts 240°
2026-05-04 10:22 -37.78430 145.06058 6042 ft 225 kts 240°
2026-05-04 10:22 -37.79347 145.04460 5997 ft 225 kts 240°
2026-05-04 10:22 -37.80284 145.02819 5539 ft 229 kts 239°
2026-05-04 10:23 -37.81140 145.01182 5169 ft 218 kts 249°
2026-05-04 10:23 -37.81632 144.99408 4683 ft 211 kts 262°
2026-05-04 10:25 -37.83105 144.87757 3251 ft 167 kts 295°
2026-05-04 10:25 -37.82314 144.86726 3097 ft 173 kts 332°
2026-05-04 10:25 -37.81122 144.86414 2847 ft 177 kts 346°
2026-05-04 10:25 -37.79904 144.86194 2601 ft 177 kts 346°
2026-05-04 10:26 -37.78691 144.85975 2364 ft 176 kts 345°
2026-05-04 10:26 -37.77475 144.85753 2128 ft 176 kts 346°
2026-05-04 10:26 -37.76264 144.85531 1909 ft 173 kts 347°
2026-05-04 10:26 -37.75102 144.85319 1673 ft 167 kts 347°
2026-05-04 10:27 -37.73999 144.85115 1442 ft 150 kts 347°
2026-05-04 10:27 -37.73017 144.84934 1250 ft 137 kts 349°
2026-05-04 10:27 -37.72088 144.84764 1018 ft 132 kts 349°
2026-05-04 10:27 -37.71186 144.84591 864 ft 132 kts 350°
2026-05-04 10:28 -37.70279 144.84407 694 ft 134 kts 353°
2026-05-04 10:28 -37.69368 144.84238 568 ft 133 kts 353°
2026-05-04 10:28 -37.68446 144.84078 379 ft 132 kts 352°
2026-05-04 10:28 -37.67639 144.83925 363 ft 94 kts 350°
2026-05-04 10:29 -37.67170 144.83839 381 ft 35 kts 352°
2026-05-04 10:29 -37.66986 144.83849 386 ft 22 kts 13°
2026-05-04 10:29 -37.66853 144.83902 391 ft 15 kts 25°
2026-05-04 10:29 -37.66812 144.83978 392 ft 12 kts 120°
2026-05-04 10:30 -37.66891 144.84002 389 ft 13 kts 171°
2026-05-04 10:30 -37.66936 144.84010 387 ft 6 kts 171°
2026-05-04 10:30 -37.66999 144.84022 385 ft 12 kts 172°
2026-05-04 10:30 -37.67097 144.84040 382 ft 17 kts 172°
2026-05-04 10:31 -37.67192 144.84058 379 ft 13 kts 171°
2026-05-04 10:31 -37.67294 144.84078 377 ft 17 kts 171°